Weather reports worldwide

Advertisment
Thorney Island, United Kingdom (3872): temperature & dewpoint: 04.07.2020 05:00:00 - 10.07.2020 05:00:00 (BST)Thorney Island, United Kingdom (3872): temperature -20cm & temperature -100cm: 04.07.2020 05:00:00 - 10.07.2020 05:00:00 (BST)Thorney Island, United Kingdom (3872): wind speed & gusts: 04.07.2020 05:00:00 - 10.07.2020 05:00:00 (BST)Thorney Island, United Kingdom (3872): wind direction: 04.07.2020 05:00:00 - 10.07.2020 05:00:00 (BST)Thorney Island, United Kingdom (3872): reduced air pressure: 04.07.2020 05:00:00 - 10.07.2020 05:00:00 (BST)Thorney Island, United Kingdom (3872): visibility: 04.07.2020 05:00:00 - 10.07.2020 05:00:00 (BST)Thorney Island, United Kingdom (3872): precipitation: 04.07.2020 05:00:00 - 10.07.2020 05:00:00 (BST)
Date & Time tt [°C] td [°C] tt -20cm [°C] tt -100cm [°C] ff [km/h] ff [kn] fx [km/h] fx [kn] dd ppp [hPa] vv [km] rr [mm]
10.07.2020 05:00:00 - - - - - - - - - - - -
10.07.2020 04:00:00 14,0 10,8 - - 21 11 - - NNW 1014,0 50 0,0
10.07.2020 03:00:00 14,4 12,1 - - 15 8 - - NW 1013,5 50 0,0
10.07.2020 02:00:00 15,1 12,7 - - 16 9 - - NNW 1013,1 50 0,0
10.07.2020 01:00:00 15,6 13,4 - - 16 9 - - NNW 1012,9 50 0,0
10.07.2020 00:00:00 16,4 14,4 - - 11 6 - - NNW 1012,3 50 0,0
09.07.2020 23:00:00 16,9 15,1 - - 18 10 - - W 1011,7 45 0,0
09.07.2020 22:00:00 16,4 15,5 - - 16 9 - - WSW 1011,4 22 0,0
09.07.2020 21:00:00 16,7 15,1 - - 18 10 - - W 1011,1 4,9 0,0
09.07.2020 20:00:00 17,4 14,9 - - 26 14 - - WSW 1011,1 40 0,0
09.07.2020 19:00:00 17,4 14,9 - - 29 16 - - WSW 1011,2 27 0,0
09.07.2020 18:00:00 17,4 14,9 - - 28 15 - - WSW 1011,5 30 0,0
09.07.2020 17:00:00 17,5 14,9 - - 29 16 - - WSW 1012,1 45 0,0
09.07.2020 16:00:00 18,6 15,5 - - 29 16 46 25 WSW 1012,3 24 0,0
09.07.2020 15:00:00 18,1 15,4 - - 31 17 46 25 WSW 1012,7 30 0,0
09.07.2020 14:00:00 18,2 15,2 - - 34 18 46 25 SW 1012,8 29 0,0
09.07.2020 13:00:00 17,4 15,6 - - 31 17 46 25 SW 1013,1 30 0,0
09.07.2020 12:00:00 17,1 15,2 - - 31 17 - - WSW 1013,0 45 0,0
09.07.2020 11:00:00 16,9 15,2 - - 26 14 - - WSW 1013,0 27 0,0
09.07.2020 10:00:00 16,4 15,1 17,4 14,7 24 13 - - WSW 1013,2 22 0,0
09.07.2020 09:00:00 15,9 14,9 - - 28 15 - - WSW 1013,3 11 0,0
09.07.2020 08:00:00 16,4 14,7 - - 28 15 - - WSW 1013,2 40 0,0
09.07.2020 07:00:00 15,7 14,6 - - 24 13 - - WSW 1013,4 19 0,0
09.07.2020 06:00:00 15,7 14,3 - - 22 12 - - WSW 1013,8 28 0,0
09.07.2020 05:00:00 15,5 14,2 - - 24 13 - - WSW 1013,9 26 0,0
09.07.2020 04:00:00 15,6 14,5 - - 22 12 - - WSW 1014,3 20 0,0
09.07.2020 03:00:00 15,7 14,7 - - 29 16 - - WSW 1014,3 15 0,0
09.07.2020 02:00:00 15,8 14,9 - - 26 14 - - WSW 1014,7 14 0,0
09.07.2020 01:00:00 16,1 15,0 - - 21 11 - - W 1014,9 30 0,0
09.07.2020 00:00:00 16,2 15,2 - - 18 10 - - W 1015,3 16 0,0
08.07.2020 23:00:00 16,3 15,2 - - 16 9 - - WSW 1015,2 16 0,0
08.07.2020 22:00:00 16,4 15,2 - - 22 12 - - WSW 1015,4 17 0,0
08.07.2020 21:00:00 17,0 15,4 - - 21 11 - - WSW 1015,3 17 0,0
08.07.2020 20:00:00 17,4 15,5 - - 21 11 - - WSW 1015,5 17 0,0
08.07.2020 19:00:00 17,7 15,6 - - 24 13 - - WSW 1015,6 12 0,0
08.07.2020 18:00:00 18,9 15,9 - - 22 12 - - WSW 1015,4 30 0,0
08.07.2020 17:00:00 19,5 16,0 - - 22 12 - - WSW 1015,6 25 0,0
08.07.2020 16:00:00 19,6 15,8 - - 28 15 - - WSW 1015,7 40 0,0
08.07.2020 15:00:00 19,8 15,9 - - 24 13 - - W 1015,7 40 0,0
08.07.2020 14:00:00 19,8 15,8 - - 24 13 - - W 1015,5 40 0,0
08.07.2020 13:00:00 19,1 15,9 - - 26 14 - - WSW 1015,4 19 0,0
08.07.2020 12:00:00 17,8 16,1 - - 24 13 - - WSW 1015,5 40 0,0
08.07.2020 11:00:00 17,2 15,7 - - 24 13 - - W 1015,8 35 0,2
08.07.2020 10:00:00 16,6 15,8 17,7 14,7 24 13 - - WSW 1015,2 16 0,0
08.07.2020 09:00:00 16,1 15,3 - - 24 13 - - W 1015,2 14 0,4
08.07.2020 08:00:00 15,9 15,2 - - 22 12 - - WSW 1015,1 19 0,2
08.07.2020 07:00:00 15,4 14,6 - - 26 14 - - WSW 1014,9 20 0,2
08.07.2020 06:00:00 15,1 14,5 - - 24 13 - - WSW 1014,9 13 0,6
08.07.2020 05:00:00 15,5 14,2 - - 28 15 - - WSW 1014,9 21 0,0
08.07.2020 04:00:00 15,6 14,0 - - 26 14 - - WSW 1015,0 16 0,0
08.07.2020 03:00:00 15,6 13,8 - - 26 14 - - WSW 1015,6 17 0,0
08.07.2020 02:00:00 15,4 13,6 - - 22 12 - - WSW 1016,2 16 0,0
08.07.2020 01:00:00 15,3 13,6 - - 22 12 - - WSW 1016,8 10 0,0
08.07.2020 00:00:00 15,6 13,2 - - 24 13 - - WSW 1017,1 17 0,0
07.07.2020 23:00:00 15,5 12,9 - - 26 14 - - WSW 1017,6 18 0,0
07.07.2020 22:00:00 15,5 12,7 - - 22 12 - - WSW 1017,8 19 0,0
07.07.2020 21:00:00 15,6 12,6 - - 26 14 - - WSW 1017,9 17 0,0
07.07.2020 20:00:00 15,8 11,6 - - 29 16 - - WSW 1018,3 22 0,0
07.07.2020 19:00:00 16,6 11,3 - - 31 17 - - WSW 1018,6 28 0,0
07.07.2020 18:00:00 18,0 11,8 - - 29 16 - - WSW 1018,9 40 0,0
07.07.2020 17:00:00 18,2 10,0 - - 26 14 - - WSW 1019,6 29 0,0
07.07.2020 16:00:00 18,2 9,5 - - 28 15 - - WSW 1020,1 45 0,0
07.07.2020 15:00:00 19,4 9,5 - - 26 14 - - WSW 1020,4 30 0,0
07.07.2020 14:00:00 19,3 10,4 - - 28 15 - - SW 1020,8 35 0,0
07.07.2020 13:00:00 19,8 10,8 - - 22 12 - - SW 1021,3 35 0,0
07.07.2020 12:00:00 17,8 10,4 - - 22 12 - - S 1021,4 35 0,0
07.07.2020 11:00:00 18,5 10,5 - - 18 10 - - WSW 1021,5 40 0,0
07.07.2020 10:00:00 17,8 12,3 17,0 14,7 13 7 - - S 1022,0 26 0,0
07.07.2020 09:00:00 16,4 10,3 - - 5 3 - - NW 1022,1 35 0,0
07.07.2020 08:00:00 14,6 9,8 - - 2 1 - - NNW 1022,2 35 0,0
07.07.2020 07:00:00 12,4 9,5 - - 4 2 - - W 1022,4 40 0,0
07.07.2020 06:00:00 11,1 8,9 - - 8 4 - - NW 1022,4 45 0,0
07.07.2020 05:00:00 10,5 8,6 - - 5 3 - - NW 1022,4 40 0,0
07.07.2020 04:00:00 11,2 8,4 - - 9 5 - - NW 1022,6 45 0,0
07.07.2020 03:00:00 11,6 8,9 - - 9 5 - - NW 1023,0 40 0,0
07.07.2020 02:00:00 12,5 9,1 - - 8 4 - - NNW 1023,2 40 0,0
07.07.2020 01:00:00 13,1 9,7 - - 9 5 - - WNW 1023,3 40 0,0
07.07.2020 00:00:00 14,2 9,8 - - 11 6 - - WNW 1023,3 30 0,0
06.07.2020 23:00:00 15,2 10,0 - - 9 5 - - WNW 1023,4 50 0,0
06.07.2020 22:00:00 15,0 11,3 - - 8 4 - - WSW 1023,2 35 0,0
06.07.2020 21:00:00 16,8 9,8 - - 11 6 - - W 1022,8 50 0,0
06.07.2020 20:00:00 19,1 10,1 - - 8 4 - - WNW 1022,5 45 0,0
06.07.2020 19:00:00 18,9 9,2 - - 11 6 - - NW 1022,4 50 0,0
06.07.2020 18:00:00 19,3 8,5 - - 18 10 - - WNW 1022,4 50 0,0
06.07.2020 17:00:00 19,6 8,7 - - 16 9 - - NW 1022,1 35 0,0
06.07.2020 16:00:00 19,0 8,5 - - 21 11 - - WNW 1021,9 40 0,0
06.07.2020 15:00:00 18,6 7,7 - - 18 10 - - NW 1021,7 40 0,0
06.07.2020 14:00:00 18,6 7,5 - - 24 13 - - WNW 1021,4 40 0,0
06.07.2020 13:00:00 18,5 6,9 - - 22 12 - - WNW 1021,2 35 0,0
06.07.2020 12:00:00 18,9 7,2 - - 22 12 - - WNW 1020,5 30 0,0
06.07.2020 11:00:00 17,2 7,6 - - 24 13 - - W 1020,1 45 0,0
06.07.2020 10:00:00 17,4 8,2 17,0 14,7 22 12 - - WNW 1019,7 30 0,0
06.07.2020 09:00:00 15,7 8,2 - - 24 13 - - WNW 1019,6 40 0,0
06.07.2020 08:00:00 14,6 9,5 - - 24 13 - - W 1018,8 30 0,0
06.07.2020 07:00:00 13,5 9,5 - - 22 12 - - W 1018,2 17 0,0
06.07.2020 06:00:00 12,7 9,5 - - 24 13 - - W 1017,5 22 0,0
06.07.2020 05:00:00 12,4 9,4 - - 22 12 - - W 1017,2 15 0,0
06.07.2020 04:00:00 12,7 9,3 - - 28 15 46 25 W 1016,9 16 0,0
06.07.2020 03:00:00 13,0 9,1 - - 31 17 50 27 W 1016,7 16 0,0
06.07.2020 02:00:00 13,3 9,0 - - 35 19 50 27 W 1016,5 15 0,0
06.07.2020 01:00:00 13,5 8,5 - - 34 18 48 26 W 1016,3 17 0,0
06.07.2020 00:00:00 13,9 8,2 - - 28 15 46 25 W 1016,4 21 0,0
05.07.2020 23:00:00 14,4 7,7 - - 24 13 - - W 1016,1 22 0,0
05.07.2020 22:00:00 15,4 7,5 - - 29 16 48 26 W 1015,7 27 0,0
05.07.2020 21:00:00 16,2 6,8 - - 31 17 50 27 W 1014,9 40 0,0
05.07.2020 20:00:00 17,3 7,1 - - 35 19 54 29 W 1014,3 35 0,0
05.07.2020 19:00:00 17,6 11,3 - - 41 22 55 30 WSW 1013,8 19 0,0
05.07.2020 18:00:00 18,4 11,1 - - 39 21 55 30 WSW 1013,7 27 0,0
05.07.2020 17:00:00 18,0 10,3 - - 44 24 61 33 WSW 1013,9 30 0,0
05.07.2020 16:00:00 20,1 11,2 - - 39 21 54 29 WSW 1013,6 45 0,0
05.07.2020 15:00:00 19,5 11,0 - - 41 22 57 31 WSW 1013,3 26 0,0
05.07.2020 14:00:00 19,9 11,6 - - 41 22 57 31 SW 1013,0 29 0,0
05.07.2020 13:00:00 20,3 10,4 - - 34 18 50 27 W 1013,0 40 0,0
05.07.2020 12:00:00 18,8 10,8 - - 35 19 50 27 WSW 1012,6 45 0,0
05.07.2020 11:00:00 18,7 11,5 - - 34 18 50 27 W 1012,3 40 0,0
05.07.2020 10:00:00 18,2 15,4 16,9 14,7 34 18 50 27 WSW 1011,8 35 0,0
05.07.2020 09:00:00 17,0 16,0 - - 34 18 46 25 WSW 1011,7 14 0,0
05.07.2020 08:00:00 15,9 15,4 - - 31 17 46 25 WSW 1011,2 2,7 0,6
05.07.2020 07:00:00 15,9 15,4 - - 34 18 54 29 WSW 1010,9 11 0,0
05.07.2020 06:00:00 15,8 15,2 - - 35 19 55 30 WSW 1010,9 6 0,0
05.07.2020 05:00:00 15,8 15,0 - - 37 20 59 32 WSW 1010,8 6 0,0
05.07.2020 04:00:00 16,0 14,9 - - 37 20 57 31 WSW 1010,9 28 0,0
05.07.2020 03:00:00 15,8 15,1 - - 37 20 57 31 WSW 1011,4 9 0,0
05.07.2020 02:00:00 15,8 14,7 - - 42 23 57 31 WSW 1011,7 21 0,0
05.07.2020 01:00:00 15,7 14,8 - - 35 19 55 30 WSW 1012,5 23 0,0
05.07.2020 00:00:00 15,9 14,5 - - 34 18 54 29 WSW 1012,5 19 0,0
04.07.2020 23:00:00 16,2 14,7 - - 35 19 48 26 WSW 1012,7 16 0,0
04.07.2020 22:00:00 16,3 15,2 - - 34 18 50 27 WSW 1012,5 10 0,0
04.07.2020 21:00:00 16,3 15,3 - - 37 20 48 26 WSW 1012,2 11 0,0
04.07.2020 20:00:00 16,4 15,3 - - 37 20 54 29 WSW 1012,2 12 0,0
04.07.2020 19:00:00 16,7 15,3 - - 39 21 55 30 WSW 1012,1 14 0,0
04.07.2020 18:00:00 16,9 15,5 - - 39 21 55 30 WSW 1012,2 17 0,0
04.07.2020 17:00:00 16,9 15,9 - - 39 21 55 30 SW 1012,1 20 0,0
04.07.2020 16:00:00 16,7 15,7 - - 37 20 52 28 WSW 1012,6 14 0,2
04.07.2020 15:00:00 16,7 15,7 - - 34 18 52 28 WSW 1012,7 13 0,0
04.07.2020 14:00:00 17,7 16,0 - - 35 19 50 27 WSW 1012,7 14 0,0
04.07.2020 13:00:00 17,7 16,0 - - 34 18 50 27 SW 1012,7 25 0,0
04.07.2020 12:00:00 16,9 15,8 - - 34 18 48 26 SW 1012,8 10 0,0
04.07.2020 11:00:00 17,0 16,0 - - 34 18 50 27 WSW 1012,8 11 0,0
04.07.2020 10:00:00 16,9 15,9 17,0 14,7 29 16 46 25 SW 1012,5 16 0,0
04.07.2020 09:00:00 16,6 15,9 - - 35 19 46 25 SW 1012,3 30 0,0
04.07.2020 08:00:00 15,9 15,5 - - 34 18 50 27 SW 1012,6 7 0,2
04.07.2020 07:00:00 15,8 15,3 - - 35 19 52 28 SW 1012,6 3,6 0,2
04.07.2020 06:00:00 15,6 15,1 - - 35 19 54 29 SW 1012,6 7 0,2
04.07.2020 05:00:00 15,4 14,9 - - 31 17 50 27 SW 1012,9 2,5 0,8

tt = temperature
td = dewpoint
tt -20cm = temperature -20cm
tt -100cm = temperature -100cm
ff = wind speed
fx = gusts
dd = wind direction
ppp = reduced air pressure
vv = visibility
rr = precipitation

Next stations